When you browse on this site, cookies collect data to enhance your experience and personalize the content and advertising you see.
Visit our Privacy Policy to learn more. By continuing to use the site, you agree to this use of cookies and data.
  • In Romania
  • List of Countries
  • For 7 days
  • Water Temperature
  • Satellite Maps
  • Weather Map
  • Weather Widgets
  • user-avatar
    Login

    Hourly Weather Batumi

    Today, 19 March, Tuesday

    Time Temperature Precipitation Wind Pressure Humidity
    00:00 +3°C° 0 mm 3 mps 769 mmHg 60%
    01:00 +3°C° 0 mm 3 mps 769 mmHg 60%
    02:00 +3°C° 0 mm 3 mps 769 mmHg 59%
    03:00 +2°C° 0 mm 3 mps 769 mmHg 59%
    04:00 +3°C° 0 mm 3 mps 769 mmHg 59%
    05:00 +3°C° 0 mm 3 mps 770 mmHg 59%
    06:00 +3°C° 0 mm 3 mps 770 mmHg 59%
    07:00 +6°C° 0 mm 2 mps 769 mmHg 54%
    08:00 +8°C° 0 mm 2 mps 769 mmHg 48%
    09:00 +12°C° 0 mm 1 mps 768 mmHg 42%
    10:00 +13°C° 0 mm 2 mps 768 mmHg 43%
    11:00 +15°C° 0 mm 2 mps 767 mmHg 44%
    12:00 +16°C° 0 mm 3 mps 767 mmHg 45%
    13:00 +16°C° 0 mm 3 mps 767 mmHg 47%
    14:00 +16°C° 0 mm 3 mps 766 mmHg 50%
    15:00 +16°C° 0 mm 3 mps 766 mmHg 52%
    16:00 +15°C° 0 mm 2 mps 766 mmHg 59%
    17:00 +13°C° 0 mm 2 mps 766 mmHg 65%
    18:00 +12°C° 0 mm 2 mps 766 mmHg 72%
    19:00 +10°C° 0 mm 2 mps 766 mmHg 70%
    20:00 +10°C° 0 mm 2 mps 767 mmHg 67%
    21:00 +9°C° 0 mm 2 mps 767 mmHg 65%
    22:00 +9°C° 0 mm 2 mps 767 mmHg 64%
    23:00 +9°C° 0 mm 2 mps 767 mmHg 62%

    Tomorrow, 20 March, Wednesday

    Time Temperature Precipitation Wind Pressure Humidity
    00:00 +9°C° 0 mm 2 mps 767 mmHg 60%
    01:00 +8°C° 0 mm 3 mps 767 mmHg 60%
    02:00 +8°C° 0 mm 3 mps 767 mmHg 59%
    03:00 +8°C° 0 mm 3 mps 767 mmHg 59%
    04:00 +8°C° 0 mm 3 mps 766 mmHg 59%
    05:00 +8°C° 0 mm 3 mps 766 mmHg 59%
    06:00 +8°C° 0 mm 3 mps 766 mmHg 59%
    07:00 +10°C° 0 mm 2 mps 766 mmHg 55%
    08:00 +13°C° 0 mm 1 mps 766 mmHg 51%
    09:00 +14°C° 0 mm 0 mps 765 mmHg 47%
    10:00 +16°C° 0 mm 1 mps 765 mmHg 47%
    11:00 +18°C° 0 mm 1 mps 764 mmHg 48%
    12:00 +18°C° 0 mm 2 mps 764 mmHg 49%
    13:00 +18°C° 0 mm 2 mps 764 mmHg 50%
    14:00 +17°C° 0 mm 2 mps 764 mmHg 52%
    15:00 +17°C° 0 mm 2 mps 764 mmHg 54%
    16:00 +16°C° 0 mm 1 mps 764 mmHg 59%
    17:00 +14°C° 0 mm 1 mps 764 mmHg 64%
    18:00 +12°C° 0 mm 0 mps 764 mmHg 69%
    19:00 +11°C° 0 mm 0 mps 765 mmHg 70%
    20:00 +11°C° 0 mm 1 mps 766 mmHg 70%
    21:00 +11°C° 0 mm 1 mps 766 mmHg 70%
    22:00 +10°C° 0 mm 1 mps 766 mmHg 67%
    23:00 +9°C° 0 mm 2 mps 766 mmHg 64%

    Day after tomorrow, 21 March, Thursday

    Time Temperature Precipitation Wind Pressure Humidity
    00:00 +9°C° 0 mm 2 mps 767 mmHg 62%
    01:00 +8°C° 0 mm 2 mps 767 mmHg 59%
    02:00 +8°C° 0 mm 2 mps 767 mmHg 57%
    03:00 +8°C° 0 mm 2 mps 767 mmHg 55%
    04:00 +7°C° 0 mm 2 mps 767 mmHg 54%
    05:00 +7°C° 0 mm 2 mps 767 mmHg 52%
    06:00 +7°C° 0 mm 2 mps 767 mmHg 51%
    07:00 +9°C° 0 mm 2 mps 767 mmHg 51%
    08:00 +10°C° 0 mm 2 mps 767 mmHg 50%
    09:00 +13°C° 0 mm 2 mps 767 mmHg 49%
    10:00 +13°C° 0 mm 3 mps 767 mmHg 54%
    11:00 +13°C° 0 mm 3 mps 767 mmHg 58%
    12:00 +14°C° 0 mm 3 mps 767 mmHg 63%
    13:00 +13°C° 0 mm 3 mps 767 mmHg 67%
    14:00 +13°C° 0 mm 3 mps 766 mmHg 71%
    15:00 +13°C° 0 mm 3 mps 766 mmHg 75%
    16:00 +13°C° 0 mm 2 mps 766 mmHg 80%
    17:00 +12°C° 0 mm 2 mps 767 mmHg 84%
    18:00 +10°C° 0 mm 2 mps 767 mmHg 89%
    19:00 +9°C° 0 mm 2 mps 768 mmHg 90%
    20:00 +9°C° 0 mm 2 mps 768 mmHg 91%
    21:00 +8°C° 0 mm 2 mps 769 mmHg 92%
    22:00 +8°C° 0 mm 2 mps 769 mmHg 89%
    23:00 +7°C° 0 mm 2 mps 769 mmHg 86%

    22 March, Friday

    Time Temperature Precipitation Wind Pressure Humidity
    00:00 +7°C° 0 mm 2 mps 769 mmHg 83%
    01:00 +7°C° 0.1 mm 2 mps 769 mmHg 79%
    02:00 +7°C° 0.1 mm 2 mps 769 mmHg 75%
    03:00 +7°C° 0.1 mm 3 mps 769 mmHg 71%
    04:00 +7°C° 0.1 mm 3 mps 769 mmHg 74%
    05:00 +7°C° 0.1 mm 3 mps 769 mmHg 77%
    06:00 +6°C° 0.1 mm 4 mps 769 mmHg 80%
    07:00 +7°C° 0.2 mm 4 mps 769 mmHg 77%
    08:00 +7°C° 0.2 mm 4 mps 769 mmHg 75%
    09:00 +8°C° 0.2 mm 5 mps 769 mmHg 73%
    10:00 +8°C° 0.5 mm 5 mps 769 mmHg 75%
    11:00 +8°C° 0.5 mm 6 mps 768 mmHg 78%
    12:00 +9°C° 0.5 mm 6 mps 768 mmHg 81%
    13:00 +8°C° 0.4 mm 6 mps 768 mmHg 83%
    14:00 +8°C° 0.4 mm 5 mps 768 mmHg 86%
    15:00 +7°C° 0.4 mm 5 mps 768 mmHg 89%
    16:00 +7°C° 0.1 mm 5 mps 768 mmHg 87%
    17:00 +6°C° 0.1 mm 4 mps 768 mmHg 84%
    18:00 +6°C° 0.1 mm 4 mps 769 mmHg 82%
    19:00 +5°C° 0 mm 4 mps 769 mmHg 81%
    20:00 +4°C° 0 mm 4 mps 770 mmHg 79%
    21:00 +3°C° 0 mm 4 mps 771 mmHg 77%
    22:00 +3°C° 0 mm 3 mps 771 mmHg 74%
    23:00 +4°C° 0 mm 3 mps 771 mmHg 70%

    23 March, Saturday

    Time Temperature Precipitation Wind Pressure Humidity
    00:00 +4°C° 0 mm 3 mps 771 mmHg 67%
    01:00 +3°C° 0 mm 3 mps 771 mmHg 67%
    02:00 +3°C° 0 mm 3 mps 771 mmHg 67%
    03:00 +3°C° 0 mm 3 mps 771 mmHg 67%
    04:00 +4°C° 0 mm 2 mps 771 mmHg 67%
    05:00 +4°C° 0 mm 2 mps 771 mmHg 68%
    06:00 +4°C° 0 mm 2 mps 771 mmHg 68%
    07:00 +6°C° 0 mm 2 mps 771 mmHg 63%
    08:00 +7°C° 0 mm 2 mps 771 mmHg 59%
    09:00 +10°C° 0 mm 1 mps 771 mmHg 54%
    10:00 +10°C° 0 mm 2 mps 770 mmHg 54%
    11:00 +12°C° 0 mm 2 mps 770 mmHg 54%
    12:00 +13°C° 0 mm 2 mps 769 mmHg 54%
    13:00 +12°C° 0 mm 2 mps 769 mmHg 56%
    14:00 +12°C° 0 mm 2 mps 769 mmHg 58%
    15:00 +12°C° 0 mm 1 mps 768 mmHg 60%
    16:00 +11°C° 0 mm 1 mps 768 mmHg 65%
    17:00 +10°C° 0 mm 1 mps 768 mmHg 69%
    18:00 +9°C° 0 mm 1 mps 768 mmHg 73%
    19:00 +8°C° 0 mm 1 mps 769 mmHg 73%
    20:00 +8°C° 0 mm 1 mps 770 mmHg 73%
    21:00 +7°C° 0 mm 1 mps 770 mmHg 74%
    22:00 +8°C° 0 mm 1 mps 770 mmHg 73%
    23:00 +8°C° 0 mm 1 mps 770 mmHg 72%

    24 March, Sunday

    Time Temperature Precipitation Wind Pressure Humidity
    00:00 +8°C° 0 mm 1 mps 770 mmHg 71%
    01:00 +8°C° 0 mm 1 mps 770 mmHg 73%
    02:00 +7°C° 0 mm 1 mps 770 mmHg 74%
    03:00 +7°C° 0 mm 1 mps 770 mmHg 76%
    04:00 +7°C° 0 mm 1 mps 770 mmHg 77%
    05:00 +7°C° 0 mm 1 mps 770 mmHg 78%
    06:00 +6°C° 0 mm 1 mps 770 mmHg 78%
    07:00 +8°C° 0 mm 1 mps 770 mmHg 73%
    08:00 +10°C° 0 mm 1 mps 770 mmHg 68%
    09:00 +12°C° 0 mm 1 mps 769 mmHg 63%
    10:00 +13°C° 0 mm 1 mps 769 mmHg 63%
    11:00 +14°C° 0 mm 2 mps 768 mmHg 63%
    12:00 +15°C° 0 mm 2 mps 768 mmHg 63%
    13:00 +15°C° 0 mm 2 mps 767 mmHg 64%
    14:00 +15°C° 0 mm 2 mps 767 mmHg 66%
    15:00 +14°C° 0 mm 2 mps 766 mmHg 68%
    16:00 +13°C° 0 mm 2 mps 766 mmHg 73%
    17:00 +12°C° 0 mm 2 mps 766 mmHg 78%
    18:00 +10°C° 0 mm 2 mps 766 mmHg 83%
    19:00 +10°C° 0 mm 2 mps 767 mmHg 84%
    20:00 +9°C° 0 mm 2 mps 767 mmHg 85%
    21:00 +8°C° 0 mm 2 mps 767 mmHg 86%
    22:00 +8°C° 0 mm 2 mps 767 mmHg 83%
    23:00 +8°C° 0 mm 2 mps 766 mmHg 80%
    Show more